| time (UTC) | temp F | wind direction | speed knots | gust knots | rain 1hr in | rain 24hr in | rain mn in | humidity % | barometer mb |
| 20260508023229 | 41 | 254 | 0.0 | 0.0 | 0.00 | 0.00 | 0.00 | 87 | 1013.1 |
| 20260508022725 | 42 | 254 | 0.0 | 0.0 | 0.00 | 0.00 | 0.00 | 87 | 1013.0 |
| 20260508022222 | 42 | 254 | 0.0 | 0.0 | 0.00 | 0.00 | 0.00 | 87 | 1012.9 |
| 20260508021718 | 42 | 254 | 0.0 | 0.0 | 0.00 | 0.00 | 0.00 | 87 | 1012.5 |
| 20260508021214 | 43 | 254 | 0.0 | 0.0 | 0.00 | 0.00 | 0.00 | 85 | 1013.0 |
| 20260508020711 | 43 | 254 | 0.0 | 0.0 | 0.00 | 0.00 | 0.00 | 83 | 1012.5 |
| 20260508020208 | 43 | 254 | 0.0 | 0.0 | 0.00 | 0.00 | 0.00 | 81 | 1012.5 |
| 20260508015706 | 44 | 254 | 0.0 | 0.0 | 0.00 | 0.00 | 0.00 | 79 | 1012.6 |
| 20260508015203 | 44 | 254 | 0.0 | 0.0 | 0.00 | 0.00 | 0.00 | 79 | 1012.7 |
| 20260508014659 | 45 | 254 | 0.0 | 0.0 | 0.00 | 0.00 | 0.00 | 77 | 1012.4 |
| 20260508014155 | 45 | 254 | 0.0 | 0.0 | 0.00 | 0.00 | 0.00 | 75 | 1012.4 |
| 20260508013652 | 46 | 254 | 0.0 | 0.0 | 0.00 | 0.00 | 0.00 | 73 | 1012.3 |
| 20260508013148 | 46 | 254 | 0.0 | 0.0 | 0.00 | 0.00 | 0.00 | 72 | 1012.3 |
| 20260508012646 | 47 | 254 | 0.0 | 0.0 | 0.00 | 0.00 | 0.00 | 70 | 1012.1 |
| 20260508012143 | 48 | 254 | 0.0 | 0.0 | 0.00 | 0.00 | 0.00 | 69 | 1012.0 |
| 20260508011641 | 48 | 252 | 0.0 | 0.0 | 0.00 | 0.00 | 0.00 | 67 | 1011.9 |
| 20260508011138 | 49 | 256 | 0.0 | 0.0 | 0.00 | 0.00 | 0.00 | 66 | 1012.0 |
| 20260508010635 | 49 | 256 | 0.0 | 0.0 | 0.00 | 0.00 | 0.00 | 64 | 1012.1 |
| 20260508010133 | 50 | 256 | 0.0 | 0.0 | 0.00 | 0.00 | 0.00 | 63 | 1011.9 |
| 20260508005630 | 50 | 256 | 0.0 | 0.0 | 0.00 | 0.00 | 0.00 | 62 | 1011.9 |
| 20260508005126 | 51 | 256 | 0.0 | 0.0 | 0.00 | 0.00 | 0.00 | 62 | 1011.8 |
| 20260508004622 | 51 | 252 | 0.0 | 0.9 | 0.00 | 0.00 | 0.00 | 61 | 1011.6 |
| 20260508004119 | 51 | 258 | 0.0 | 0.9 | 0.00 | 0.00 | 0.00 | 61 | 1011.6 |
| 20260508003615 | 52 | 256 | 0.0 | 0.0 | 0.00 | 0.00 | 0.00 | 60 | 1011.6 |
| 20260508003113 | 52 | 250 | 0.9 | 0.9 | 0.00 | 0.00 | 0.00 | 60 | 1011.6 |
| 20260508002609 | 52 | 246 | 0.0 | 0.9 | 0.00 | 0.00 | 0.00 | 60 | 1011.7 |
| 20260508002107 | 53 | 265 | 0.9 | 1.7 | 0.00 | 0.00 | 0.00 | 59 | 1011.3 |
| 20260508001602 | 53 | 298 | 1.7 | 2.6 | 0.00 | 0.00 | 0.00 | 57 | 1011.3 |
| 20260508001058 | 54 | 47 | 3.5 | 5.2 | 0.00 | 0.00 | 0.00 | 56 | 1011.2 |
| 20260508000554 | 54 | 265 | 2.6 | 2.6 | 0.00 | 0.00 | 0.00 | 58 | 1011.5 |
| 20260508000052 | 54 | 276 | 0.0 | 1.7 | 0.00 | 0.00 | 0.00 | 57 | 1011.1 |
| 20260507235548 | 54 | 101 | 0.9 | 1.7 | 0.00 | 0.00 | 0.00 | 57 | 1011.2 |
| 20260507235046 | 54 | 261 | 0.9 | 0.9 | 0.00 | 0.00 | 0.00 | 57 | 1010.9 |
| 20260507234542 | 54 | 349 | 3.5 | 5.2 | 0.00 | 0.00 | 0.00 | 54 | 1010.8 |
| 20260507234039 | 54 | 3 | 3.5 | 5.2 | 0.00 | 0.00 | 0.00 | 54 | 1010.9 |
| 20260507233536 | 55 | 354 | 2.6 | 4.3 | 0.00 | 0.00 | 0.00 | 55 | 1010.7 |
| 20260507233034 | 55 | 259 | 0.9 | 0.9 | 0.00 | 0.00 | 0.00 | 54 | 1010.9 |
| 20260507232530 | 56 | 303 | 1.7 | 1.7 | 0.00 | 0.00 | 0.00 | 53 | 1010.8 |
| 20260507232028 | 57 | 305 | 1.7 | 2.6 | 0.00 | 0.00 | 0.00 | 51 | 1010.8 |
| 20260507231524 | 57 | 279 | 2.6 | 2.6 | 0.00 | 0.00 | 0.00 | 49 | 1010.6 |
| 20260507231022 | 57 | 260 | 0.9 | 0.9 | 0.00 | 0.00 | 0.00 | 50 | 1010.6 |
| 20260507230518 | 57 | 260 | 0.9 | 0.9 | 0.00 | 0.00 | 0.00 | 47 | 1010.7 |
| 20260507230015 | 57 | 240 | 0.0 | 0.9 | 0.00 | 0.00 | 0.00 | 47 | 1010.6 |
| 20260507225510 | 58 | 74 | 1.7 | 2.6 | 0.00 | 0.00 | 0.00 | 47 | 1010.5 |
| 20260507225007 | 58 | 301 | 3.5 | 4.3 | 0.00 | 0.00 | 0.00 | 45 | 1010.3 |
| 20260507224502 | 57 | 275 | 1.7 | 2.6 | 0.00 | 0.00 | 0.00 | 47 | 1010.5 |
| 20260507223959 | 57 | 257 | 0.9 | 0.9 | 0.00 | 0.00 | 0.00 | 47 | 1010.2 |
| 20260507223454 | 58 | 262 | 2.6 | 2.6 | 0.00 | 0.00 | 0.00 | 45 | 1010.2 |
| 20260507222952 | 59 | 85 | 1.7 | 2.6 | 0.00 | 0.00 | 0.00 | 46 | 1010.2 |
| 20260507222449 | 59 | 265 | 1.7 | 1.7 | 0.00 | 0.00 | 0.00 | 46 | 1010.2 |
| 20260507221945 | 59 | 205 | 2.6 | 5.2 | 0.00 | 0.00 | 0.00 | 46 | 1010.0 |
| 20260507221442 | 58 | 249 | 0.9 | 0.9 | 0.00 | 0.00 | 0.00 | 45 | 1010.1 |
| 20260507220938 | 59 | 256 | 3.5 | 5.2 | 0.00 | 0.00 | 0.00 | 45 | 1010.2 |
| 20260507220436 | 59 | 310 | 1.7 | 1.7 | 0.00 | 0.00 | 0.00 | 45 | 1010.0 |
| 20260507215933 | 59 | 271 | 3.5 | 4.3 | 0.00 | 0.00 | 0.00 | 43 | 1009.9 |
| 20260507215429 | 60 | 328 | 4.3 | 7.0 | 0.00 | 0.00 | 0.00 | 43 | 1009.7 |
| 20260507214926 | 60 | 269 | 2.6 | 4.3 | 0.00 | 0.00 | 0.00 | 43 | 1009.7 |
| 20260507214424 | 60 | 181 | 2.6 | 4.3 | 0.00 | 0.00 | 0.00 | 45 | 1009.7 |
| 20260507213919 | 60 | 203 | 0.9 | 0.9 | 0.00 | 0.00 | 0.00 | 44 | 1009.6 |
| 20260507213416 | 62 | 206 | 3.5 | 7.0 | 0.00 | 0.00 | 0.00 | 43 | 1009.5 |
| 20260507212913 | 61 | 268 | 1.7 | 1.7 | 0.00 | 0.00 | 0.00 | 44 | 1009.5 |
| 20260507212409 | 61 | 282 | 1.7 | 1.7 | 0.00 | 0.00 | 0.00 | 44 | 1009.5 |
| 20260507211906 | 60 | 260 | 0.9 | 0.9 | 0.00 | 0.00 | 0.00 | 45 | 1009.6 |
| 20260507211402 | 62 | 273 | 1.7 | 1.7 | 0.00 | 0.00 | 0.00 | 41 | 1009.4 |
| 20260507210859 | 63 | 259 | 0.9 | 1.7 | 0.00 | 0.00 | 0.00 | 43 | 1009.3 |
| 20260507210356 | 63 | 17 | 1.7 | 1.7 | 0.00 | 0.00 | 0.00 | 43 | 1009.4 |
| 20260507205853 | 60 | 275 | 0.9 | 1.7 | 0.00 | 0.00 | 0.00 | 47 | 1009.4 |
| 20260507205349 | 61 | 265 | 1.7 | 1.7 | 0.00 | 0.00 | 0.00 | 43 | 1009.3 |
| 20260507204846 | 62 | 16 | 2.6 | 5.2 | 0.00 | 0.00 | 0.00 | 42 | 1009.4 |
| 20260507204343 | 62 | 252 | 0.9 | 1.7 | 0.00 | 0.00 | 0.00 | 44 | 1009.6 |
| 20260507203841 | 62 | 291 | 1.7 | 1.7 | 0.00 | 0.00 | 0.00 | 43 | 1009.7 |
| 20260507203339 | 60 | 325 | 0.9 | 1.7 | 0.00 | 0.00 | 0.00 | 46 | 1009.7 |
| 20260507202834 | 61 | 255 | 1.7 | 2.6 | 0.00 | 0.00 | 0.00 | 46 | 1009.6 |
| 20260507202331 | 62 | 274 | 2.6 | 2.6 | 0.00 | 0.00 | 0.00 | 41 | 1009.2 |
| 20260507201827 | 61 | 91 | 0.9 | 1.7 | 0.00 | 0.00 | 0.00 | 43 | 1009.5 |
| 20260507201322 | 63 | 223 | 2.6 | 2.6 | 0.00 | 0.00 | 0.00 | 42 | 1009.5 |
| 20260507200819 | 61 | 256 | 1.7 | 2.6 | 0.00 | 0.00 | 0.00 | 45 | 1009.6 |
| 20260507200315 | 61 | 235 | 0.9 | 0.9 | 0.00 | 0.00 | 0.00 | 42 | 1009.6 |
| 20260507195811 | 61 | 253 | 0.9 | 0.9 | 0.00 | 0.00 | 0.00 | 45 | 1009.7 |
| 20260507195309 | 62 | 286 | 0.9 | 1.7 | 0.00 | 0.00 | 0.00 | 43 | 1009.6 |
| 20260507194806 | 61 | 233 | 0.0 | 0.0 | 0.00 | 0.00 | 0.00 | 46 | 1009.9 |
| 20260507194302 | 60 | 302 | 1.7 | 1.7 | 0.00 | 0.00 | 0.00 | 45 | 1010.0 |
| 20260507193758 | 61 | 301 | 2.6 | 2.6 | 0.00 | 0.00 | 0.00 | 43 | 1009.9 |
| 20260507193255 | 63 | 268 | 0.9 | 0.9 | 0.00 | 0.00 | 0.00 | 39 | 1009.8 |
| 20260507192751 | 62 | 270 | 1.7 | 1.7 | 0.00 | 0.00 | 0.00 | 44 | 1010.0 |
| 20260507192248 | 62 | 243 | 1.7 | 1.7 | 0.00 | 0.00 | 0.00 | 44 | 1009.7 |
| 20260507191744 | 61 | 300 | 0.9 | 1.7 | 0.00 | 0.00 | 0.00 | 45 | 1009.8 |
| 20260507191241 | 63 | 262 | 2.6 | 2.6 | 0.00 | 0.00 | 0.00 | 42 | 1009.6 |
| 20260507190738 | 64 | 260 | 3.5 | 5.2 | 0.00 | 0.00 | 0.00 | 43 | 1009.8 |
| 20260507190237 | 65 | 294 | 2.6 | 4.3 | 0.00 | 0.00 | 0.00 | 40 | 1009.8 |
| 20260507185735 | 65 | 38 | 2.6 | 5.2 | 0.00 | 0.00 | 0.00 | 42 | 1009.9 |
| 20260507185231 | 65 | 233 | 2.6 | 4.3 | 0.00 | 0.00 | 0.00 | 39 | 1009.9 |
| 20260507184729 | 64 | 297 | 3.5 | 4.3 | 0.00 | 0.00 | 0.00 | 43 | 1009.9 |
| 20260507184227 | 64 | 263 | 1.7 | 1.7 | 0.00 | 0.00 | 0.00 | 48 | 1010.2 |
| 20260507183723 | 62 | 260 | 1.7 | 2.6 | 0.00 | 0.00 | 0.00 | 43 | 1009.9 |
| 20260507183214 | 61 | 264 | 0.9 | 0.9 | 0.00 | 0.00 | 0.00 | 46 | 1009.9 |
| 20260507182712 | 63 | 256 | 1.7 | 1.7 | 0.00 | 0.00 | 0.00 | 43 | 1010.2 |
| 20260507182206 | 61 | 267 | 1.7 | 1.7 | 0.00 | 0.00 | 0.00 | 47 | 1010.2 |
| 20260507181703 | 61 | 119 | 2.6 | 4.3 | 0.00 | 0.00 | 0.00 | 44 | 1010.2 |
| 20260507181200 | 60 | 225 | 0.9 | 0.9 | 0.00 | 0.00 | 0.00 | 46 | 1010.1 |
| 20260507180656 | 62 | 268 | 2.6 | 2.6 | 0.00 | 0.00 | 0.00 | 42 | 1010.4 |
| 20260507180154 | 59 | 314 | 2.6 | 4.3 | 0.00 | 0.00 | 0.00 | 52 | 1010.5 |
| 20260507175649 | 59 | 254 | 1.7 | 1.7 | 0.00 | 0.00 | 0.00 | 49 | 1010.3 |
| 20260507175147 | 60 | 279 | 0.9 | 1.7 | 0.00 | 0.00 | 0.00 | 47 | 1010.3 |
| 20260507174644 | 61 | 256 | 0.9 | 0.9 | 0.00 | 0.00 | 0.00 | 45 | 1010.4 |
| 20260507174142 | 62 | 268 | 1.7 | 1.7 | 0.00 | 0.00 | 0.00 | 45 | 1010.4 |
| 20260507173638 | 61 | 251 | 0.9 | 0.9 | 0.00 | 0.00 | 0.00 | 48 | 1010.7 |
| 20260507173135 | 59 | 298 | 3.5 | 4.3 | 0.00 | 0.00 | 0.00 | 49 | 1010.5 |
| 20260507172632 | 59 | 231 | 1.7 | 5.2 | 0.00 | 0.00 | 0.00 | 48 | 1010.4 |
| 20260507172130 | 59 | 257 | 0.9 | 1.7 | 0.00 | 0.00 | 0.00 | 49 | 1010.6 |
| 20260507171629 | 60 | 256 | 0.9 | 1.7 | 0.00 | 0.00 | 0.00 | 45 | 1010.6 |
| 20260507171127 | 59 | 299 | 1.7 | 1.7 | 0.00 | 0.00 | 0.00 | 50 | 1011.0 |
| 20260507170624 | 59 | 317 | 3.5 | 6.1 | 0.00 | 0.00 | 0.00 | 49 | 1010.6 |
| 20260507170121 | 58 | 259 | 0.0 | 0.0 | 0.00 | 0.00 | 0.00 | 51 | 1010.9 |
| 20260507165616 | 59 | 294 | 2.6 | 4.3 | 0.00 | 0.00 | 0.00 | 51 | 1010.8 |
| 20260507165113 | 59 | 260 | 1.7 | 2.6 | 0.00 | 0.00 | 0.00 | 48 | 1010.8 |
| 20260507164609 | 62 | 256 | 0.9 | 0.9 | 0.00 | 0.00 | 0.00 | 49 | 1010.9 |
| 20260507164106 | 61 | 244 | 0.9 | 0.9 | 0.00 | 0.00 | 0.00 | 48 | 1011.0 |
| 20260507163604 | 60 | 277 | 0.9 | 0.9 | 0.00 | 0.00 | 0.00 | 50 | 1011.0 |
| 20260507163102 | 59 | 262 | 0.9 | 0.9 | 0.00 | 0.00 | 0.00 | 50 | 1011.1 |
| 20260507162601 | 57 | 272 | 1.7 | 2.6 | 0.00 | 0.00 | 0.00 | 52 | 1010.8 |
| 20260507162059 | 59 | 246 | 2.6 | 4.3 | 0.00 | 0.00 | 0.00 | 50 | 1010.9 |
| 20260507161555 | 60 | 268 | 0.9 | 0.9 | 0.00 | 0.00 | 0.00 | 51 | 1011.0 |
| 20260507161052 | 59 | 251 | 0.9 | 2.6 | 0.00 | 0.00 | 0.00 | 53 | 1011.0 |
| 20260507160548 | 57 | 283 | 0.9 | 0.9 | 0.00 | 0.00 | 0.00 | 56 | 1011.2 |
| 20260507160044 | 56 | 258 | 0.0 | 0.9 | 0.00 | 0.00 | 0.00 | 54 | 1011.2 |
| 20260507155539 | 57 | 203 | 0.9 | 0.9 | 0.00 | 0.00 | 0.00 | 57 | 1011.3 |
| 20260507155037 | 56 | 254 | 0.0 | 0.0 | 0.00 | 0.00 | 0.00 | 58 | 1011.5 |
| 20260507154534 | 56 | 257 | 0.9 | 1.7 | 0.00 | 0.00 | 0.00 | 57 | 1011.3 |
| 20260507154031 | 56 | 338 | 1.7 | 1.7 | 0.00 | 0.00 | 0.00 | 56 | 1011.3 |
| 20260507153528 | 57 | 261 | 0.9 | 1.7 | 0.00 | 0.00 | 0.00 | 56 | 1011.5 |
| 20260507153024 | 57 | 257 | 0.9 | 0.9 | 0.00 | 0.00 | 0.00 | 55 | 1011.3 |
| 20260507152520 | 58 | 258 | 0.9 | 1.7 | 0.00 | 0.00 | 0.00 | 57 | 1011.7 |
| 20260507152016 | 56 | 77 | 0.9 | 1.7 | 0.00 | 0.00 | 0.00 | 56 | 1011.7 |
| 20260507151513 | 57 | 342 | 2.6 | 2.6 | 0.00 | 0.00 | 0.00 | 57 | 1011.5 |
| 20260507151010 | 58 | 260 | 0.0 | 0.9 | 0.00 | 0.00 | 0.00 | 54 | 1011.6 |
| 20260507150506 | 58 | 251 | 0.9 | 1.7 | 0.00 | 0.00 | 0.00 | 53 | 1011.5 |
| 20260507150003 | 58 | 244 | 1.7 | 1.7 | 0.00 | 0.00 | 0.00 | 53 | 1011.9 |
| 20260507145458 | 57 | 250 | 0.9 | 0.9 | 0.00 | 0.00 | 0.00 | 59 | 1011.9 |
| 20260507144956 | 56 | 264 | 0.9 | 1.7 | 0.00 | 0.00 | 0.00 | 58 | 1011.8 |
| 20260507144452 | 57 | 262 | 0.0 | 0.9 | 0.00 | 0.00 | 0.00 | 57 | 1012.1 |
| 20260507143949 | 58 | 246 | 0.9 | 0.9 | 0.00 | 0.00 | 0.00 | 54 | 1011.8 |
| 20260507143447 | 57 | 213 | 3.5 | 4.3 | 0.00 | 0.00 | 0.00 | 53 | 1012.0 |
| 20260507142943 | 58 | 293 | 0.9 | 1.7 | 0.00 | 0.00 | 0.00 | 57 | 1012.0 |
| 20260507142439 | 59 | 245 | 2.6 | 4.3 | 0.00 | 0.00 | 0.00 | 53 | 1012.1 |
| 20260507141937 | 59 | 289 | 0.9 | 1.7 | 0.00 | 0.00 | 0.00 | 56 | 1012.3 |
| 20260507141432 | 58 | 229 | 1.7 | 1.7 | 0.00 | 0.00 | 0.00 | 55 | 1012.4 |
| 20260507140930 | 57 | 246 | 0.0 | 0.9 | 0.00 | 0.00 | 0.00 | 60 | 1012.3 |
| 20260507140426 | 57 | 258 | 1.7 | 1.7 | 0.00 | 0.00 | 0.00 | 59 | 1012.6 |
| 20260507135924 | 57 | 255 | 0.9 | 1.7 | 0.00 | 0.00 | 0.00 | 60 | 1012.3 |
| 20260507135420 | 57 | 258 | 0.0 | 0.9 | 0.00 | 0.00 | 0.00 | 61 | 1012.4 |
| 20260507134918 | 56 | 284 | 0.0 | 0.0 | 0.00 | 0.00 | 0.00 | 61 | 1012.5 |
| 20260507134414 | 55 | 259 | 2.6 | 2.6 | 0.00 | 0.00 | 0.00 | 64 | 1012.6 |
| 20260507133910 | 55 | 273 | 0.0 | 0.0 | 0.00 | 0.00 | 0.00 | 65 | 1012.4 |
| 20260507133406 | 55 | 231 | 2.6 | 2.6 | 0.00 | 0.00 | 0.00 | 65 | 1012.9 |
| 20260507132905 | 53 | 260 | 0.0 | 0.9 | 0.00 | 0.00 | 0.00 | 71 | 1012.9 |
| 20260507132401 | 53 | 269 | 0.9 | 1.7 | 0.00 | 0.00 | 0.00 | 71 | 1012.7 |
| 20260507131858 | 52 | 270 | 0.9 | 0.9 | 0.00 | 0.00 | 0.00 | 74 | 1012.5 |
| 20260507131355 | 51 | 248 | 0.0 | 0.0 | 0.00 | 0.00 | 0.00 | 76 | 1012.7 |
| 20260507130852 | 50 | 260 | 0.0 | 0.9 | 0.00 | 0.00 | 0.00 | 82 | 1013.0 |
| 20260507130348 | 49 | 266 | 1.7 | 1.7 | 0.00 | 0.00 | 0.00 | 81 | 1013.0 |
| 20260507125848 | 49 | 276 | 1.7 | 1.7 | 0.00 | 0.00 | 0.00 | 83 | 1012.9 |
| 20260507125344 | 47 | 249 | 0.0 | 0.0 | 0.00 | 0.00 | 0.00 | 87 | 1012.9 |
| 20260507124842 | 45 | 254 | 0.0 | 0.0 | 0.00 | 0.00 | 0.00 | 91 | 1013.0 |
| 20260507124338 | 44 | 262 | 0.0 | 0.0 | 0.00 | 0.00 | 0.00 | 92 | 1013.1 |
| 20260507123837 | 44 | 252 | 0.0 | 0.0 | 0.00 | 0.00 | 0.00 | 94 | 1013.0 |
| 20260507123333 | 44 | 260 | 0.0 | 0.0 | 0.00 | 0.00 | 0.00 | 95 | 1012.6 |
| 20260507122830 | 43 | 253 | 0.0 | 0.0 | 0.00 | 0.00 | 0.00 | 97 | 1012.9 |
| 20260507122325 | 44 | 254 | 0.0 | 0.0 | 0.00 | 0.00 | 0.00 | 99 | 1013.0 |
| 20260507121823 | 43 | 253 | 0.0 | 0.0 | 0.00 | 0.00 | 0.00 | 99 | 1012.9 |
| 20260507121317 | 43 | 254 | 0.0 | 0.0 | 0.00 | 0.00 | 0.00 | 99 | 1013.0 |
| 20260507120814 | 42 | 250 | 0.0 | 0.0 | 0.00 | 0.00 | 0.00 | 99 | 1013.0 |
| 20260507120310 | 41 | 253 | 0.0 | 0.0 | 0.00 | 0.00 | 0.00 | 99 | 1013.0 |
| 20260507115807 | 40 | 248 | 0.9 | 0.9 | 0.00 | 0.00 | 0.00 | 99 | 1013.0 |
| 20260507115306 | 39 | 253 | 0.0 | 0.0 | 0.00 | 0.00 | 0.00 | 99 | 1013.0 |
| 20260507114758 | 40 | 253 | 0.0 | 0.0 | 0.00 | 0.00 | 0.00 | 99 | 1013.0 |
| 20260507114256 | 39 | 250 | 0.0 | 0.0 | 0.00 | 0.00 | 0.00 | 99 | 1013.1 |
| 20260507113753 | 39 | 253 | 0.0 | 0.0 | 0.00 | 0.00 | 0.00 | 99 | 1013.1 |
| 20260507113249 | 38 | 255 | 0.0 | 0.0 | 0.00 | 0.00 | 0.00 | 99 | 1013.1 |
| 20260507112748 | 37 | 255 | 0.0 | 0.0 | 0.00 | 0.00 | 0.00 | 99 | 1012.9 |
| 20260507112244 | 37 | 253 | 0.0 | 0.0 | 0.00 | 0.00 | 0.00 | 99 | 1012.9 |
| 20260507111742 | 37 | 250 | 0.0 | 0.9 | 0.00 | 0.00 | 0.00 | 99 | 1012.9 |
| 20260507111238 | 37 | 254 | 0.0 | 0.0 | 0.00 | 0.00 | 0.00 | 99 | 1012.9 |
| 20260507110734 | 37 | 254 | 0.0 | 0.0 | 0.00 | 0.00 | 0.00 | 99 | 1013.0 |
| 20260507110231 | 37 | 254 | 0.0 | 0.0 | 0.00 | 0.00 | 0.00 | 99 | 1012.6 |
| 20260507105728 | 37 | 253 | 0.0 | 0.0 | 0.00 | 0.00 | 0.00 | 99 | 1012.6 |
| 20260507105224 | 37 | 252 | 0.0 | 0.0 | 0.00 | 0.00 | 0.00 | 99 | 1012.7 |
| 20260507104722 | 36 | 254 | 0.0 | 0.0 | 0.00 | 0.00 | 0.00 | 99 | 1012.6 |
| 20260507104218 | 36 | 254 | 0.0 | 0.0 | 0.00 | 0.00 | 0.00 | 99 | 1012.6 |
| 20260507103714 | 36 | 254 | 0.0 | 0.0 | 0.00 | 0.00 | 0.00 | 99 | 1012.5 |
| 20260507103210 | 36 | 254 | 0.0 | 0.0 | 0.00 | 0.00 | 0.00 | 99 | 1012.6 |
| 20260507102707 | 36 | 254 | 0.0 | 0.0 | 0.00 | 0.00 | 0.00 | 99 | 1012.5 |
| 20260507102204 | 36 | 254 | 0.0 | 0.0 | 0.00 | 0.00 | 0.00 | 99 | 1012.5 |
| 20260507101700 | 36 | 255 | 0.0 | 0.0 | 0.00 | 0.00 | 0.00 | 99 | 1012.4 |
| 20260507101155 | 36 | 255 | 0.0 | 0.0 | 0.00 | 0.00 | 0.00 | 99 | 1012.5 |
| 20260507100653 | 35 | 255 | 0.0 | 0.0 | 0.00 | 0.00 | 0.00 | 99 | 1012.4 |
| 20260507100151 | 35 | 255 | 0.0 | 0.0 | 0.00 | 0.00 | 0.00 | 99 | 1012.1 |
| 20260507095649 | 35 | 254 | 0.0 | 0.0 | 0.00 | 0.00 | 0.00 | 99 | 1012.3 |
| 20260507095145 | 35 | 255 | 0.0 | 0.0 | 0.00 | 0.00 | 0.00 | 99 | 1012.3 |
| 20260507094641 | 35 | 255 | 0.0 | 0.0 | 0.00 | 0.00 | 0.00 | 99 | 1012.3 |
| 20260507094138 | 35 | 255 | 0.0 | 0.0 | 0.00 | 0.00 | 0.00 | 99 | 1012.4 |
| 20260507093636 | 35 | 255 | 0.0 | 0.0 | 0.00 | 0.00 | 0.00 | 99 | 1012.3 |
| 20260507093134 | 35 | 255 | 0.0 | 0.0 | 0.00 | 0.00 | 0.00 | 99 | 1012.3 |
| 20260507092630 | 34 | 255 | 0.0 | 0.0 | 0.00 | 0.00 | 0.00 | 99 | 1012.2 |
| 20260507092127 | 35 | 255 | 0.0 | 0.0 | 0.00 | 0.00 | 0.00 | 99 | 1012.3 |
| 20260507091624 | 35 | 255 | 0.0 | 0.0 | 0.00 | 0.00 | 0.00 | 99 | 1012.6 |
| 20260507091119 | 35 | 255 | 0.0 | 0.0 | 0.00 | 0.00 | 0.00 | 99 | 1012.2 |
| 20260507090616 | 35 | 255 | 0.0 | 0.0 | 0.00 | 0.00 | 0.00 | 99 | 1012.4 |
| 20260507090113 | 35 | 255 | 0.0 | 0.0 | 0.00 | 0.00 | 0.00 | 99 | 1012.3 |
| 20260507085610 | 35 | 255 | 0.0 | 0.0 | 0.00 | 0.00 | 0.00 | 99 | 1012.4 |
| 20260507085106 | 35 | 255 | 0.0 | 0.0 | 0.00 | 0.00 | 0.00 | 99 | 1012.5 |
| 20260507084603 | 35 | 255 | 0.0 | 0.0 | 0.00 | 0.00 | 0.00 | 99 | 1012.5 |
| 20260507084100 | 36 | 255 | 0.0 | 0.0 | 0.00 | 0.00 | 0.00 | 99 | 1012.5 |
| 20260507083556 | 36 | 255 | 0.0 | 0.0 | 0.00 | 0.00 | 0.00 | 99 | 1012.5 |
| 20260507083054 | 36 | 255 | 0.0 | 0.0 | 0.00 | 0.00 | 0.00 | 99 | 1012.3 |
| 20260507082549 | 36 | 255 | 0.0 | 0.0 | 0.00 | 0.00 | 0.00 | 99 | 1012.4 |
| 20260507082046 | 37 | 255 | 0.0 | 0.0 | 0.00 | 0.00 | 0.00 | 99 | 1012.6 |
| 20260507081542 | 37 | 256 | 0.0 | 0.0 | 0.00 | 0.00 | 0.00 | 99 | 1012.5 |
| 20260507081040 | 36 | 256 | 0.0 | 0.0 | 0.00 | 0.00 | 0.00 | 99 | 1012.5 |
| 20260507080535 | 36 | 256 | 0.0 | 0.0 | 0.00 | 0.00 | 0.00 | 98 | 1012.6 |
| 20260507080032 | 36 | 256 | 0.0 | 0.0 | 0.00 | 0.00 | 0.00 | 98 | 1012.4 |
| 20260507075527 | 36 | 256 | 0.0 | 0.0 | 0.00 | 0.00 | 0.00 | 98 | 1012.5 |
| 20260507075024 | 37 | 256 | 0.0 | 0.0 | 0.00 | 0.00 | 0.00 | 98 | 1012.7 |
| 20260507074521 | 37 | 256 | 0.0 | 0.0 | 0.00 | 0.00 | 0.00 | 98 | 1012.5 |
| 20260507074020 | 37 | 256 | 0.0 | 0.0 | 0.00 | 0.00 | 0.00 | 98 | 1012.9 |
| 20260507073515 | 38 | 256 | 0.0 | 0.0 | 0.00 | 0.00 | 0.00 | 98 | 1012.6 |
| 20260507073012 | 38 | 256 | 0.0 | 0.0 | 0.00 | 0.00 | 0.00 | 98 | 1012.7 |
| 20260507072509 | 38 | 256 | 0.0 | 0.0 | 0.00 | 0.00 | 0.00 | 97 | 1012.7 |
| 20260507072006 | 38 | 256 | 0.0 | 0.0 | 0.00 | 0.00 | 0.00 | 97 | 1012.7 |
| 20260507071504 | 39 | 256 | 0.0 | 0.0 | 0.00 | 0.00 | 0.00 | 97 | 1012.9 |
| 20260507071000 | 39 | 256 | 0.0 | 0.0 | 0.00 | 0.00 | 0.00 | 97 | 1012.9 |
| 20260507070457 | 39 | 256 | 0.0 | 0.0 | 0.00 | 0.00 | 0.00 | 97 | 1012.7 |
| 20260507065954 | 40 | 256 | 0.0 | 0.0 | 0.00 | 0.00 | 0.00 | 97 | 1012.7 |
| 20260507065451 | 40 | 256 | 0.0 | 0.0 | 0.00 | 0.00 | 0.00 | 96 | 1013.0 |
| 20260507064948 | 40 | 256 | 0.0 | 0.0 | 0.00 | 0.00 | 0.00 | 96 | 1012.7 |
| 20260507064446 | 40 | 256 | 0.0 | 0.0 | 0.00 | 0.00 | 0.00 | 95 | 1013.0 |
| 20260507063943 | 40 | 257 | 0.0 | 0.0 | 0.00 | 0.00 | 0.00 | 95 | 1012.6 |
| 20260507063440 | 41 | 257 | 0.0 | 0.0 | 0.00 | 0.00 | 0.00 | 94 | 1012.9 |
| 20260507062937 | 41 | 257 | 0.0 | 0.0 | 0.00 | 0.00 | 0.00 | 93 | 1013.1 |
| 20260507062434 | 41 | 257 | 0.0 | 0.0 | 0.00 | 0.00 | 0.00 | 92 | 1013.1 |
| 20260507061931 | 41 | 257 | 0.0 | 0.0 | 0.00 | 0.00 | 0.00 | 92 | 1012.9 |
| 20260507061429 | 42 | 257 | 0.0 | 0.0 | 0.00 | 0.00 | 0.00 | 91 | 1013.2 |
| 20260507060928 | 42 | 257 | 0.0 | 0.0 | 0.00 | 0.00 | 0.00 | 91 | 1013.1 |
| 20260507060424 | 42 | 257 | 0.0 | 0.0 | 0.00 | 0.00 | 0.00 | 90 | 1013.4 |
| 20260507055921 | 42 | 257 | 0.0 | 0.0 | 0.00 | 0.00 | 0.00 | 90 | 1013.2 |
| 20260507055416 | 43 | 258 | 0.0 | 0.0 | 0.00 | 0.00 | 0.00 | 89 | 1013.2 |
| 20260507054913 | 43 | 258 | 0.0 | 0.0 | 0.00 | 0.00 | 0.00 | 88 | 1013.1 |
| 20260507054409 | 44 | 258 | 0.0 | 0.0 | 0.00 | 0.00 | 0.00 | 87 | 1013.1 |
| 20260507053907 | 44 | 258 | 0.0 | 0.0 | 0.00 | 0.00 | 0.00 | 86 | 1013.2 |
| 20260507053404 | 44 | 258 | 0.0 | 0.0 | 0.00 | 0.00 | 0.00 | 85 | 1013.0 |
| 20260507052903 | 45 | 258 | 0.0 | 0.0 | 0.00 | 0.00 | 0.00 | 85 | 1013.5 |
| 20260507052400 | 45 | 258 | 0.0 | 0.0 | 0.00 | 0.00 | 0.00 | 85 | 1013.3 |
| 20260507051857 | 45 | 258 | 0.0 | 0.0 | 0.00 | 0.00 | 0.00 | 84 | 1013.3 |
| 20260507051354 | 45 | 258 | 0.0 | 0.0 | 0.00 | 0.00 | 0.00 | 82 | 1013.4 |
| 20260507050851 | 45 | 258 | 0.0 | 0.0 | 0.00 | 0.00 | 0.00 | 81 | 1013.3 |
| 20260507050348 | 46 | 258 | 0.0 | 0.0 | 0.00 | 0.00 | 0.00 | 82 | 1013.5 |
| 20260507045845 | 46 | 259 | 0.0 | 0.0 | 0.00 | 0.00 | 0.00 | 82 | 1013.6 |
| 20260507045341 | 46 | 259 | 0.0 | 0.0 | 0.00 | 0.00 | 0.00 | 81 | 1013.5 |
| 20260507044838 | 46 | 259 | 0.0 | 0.0 | 0.00 | 0.00 | 0.00 | 80 | 1013.6 |
| 20260507044335 | 46 | 259 | 0.0 | 0.0 | 0.00 | 0.00 | 0.00 | 79 | 1013.5 |
| 20260507043830 | 46 | 259 | 0.0 | 0.0 | 0.00 | 0.00 | 0.00 | 79 | 1013.7 |
| 20260507043327 | 46 | 260 | 0.0 | 0.0 | 0.00 | 0.00 | 0.00 | 79 | 1013.4 |
| 20260507042824 | 46 | 262 | 0.0 | 0.0 | 0.00 | 0.00 | 0.00 | 81 | 1013.7 |
| 20260507042319 | 46 | 262 | 0.0 | 0.0 | 0.00 | 0.00 | 0.00 | 80 | 1013.6 |
| 20260507041817 | 47 | 262 | 0.0 | 0.0 | 0.00 | 0.00 | 0.00 | 79 | 1013.5 |
| 20260507041313 | 47 | 262 | 0.0 | 0.0 | 0.00 | 0.00 | 0.00 | 78 | 1013.5 |
| 20260507040810 | 47 | 262 | 0.0 | 0.0 | 0.00 | 0.00 | 0.00 | 77 | 1013.6 |
| 20260507040306 | 47 | 262 | 0.0 | 0.9 | 0.00 | 0.00 | 0.00 | 77 | 1013.6 |
| 20260507035802 | 47 | 262 | 0.0 | 0.0 | 0.00 | 0.50 | 0.50 | 79 | 1013.7 |
| 20260507035258 | 47 | 263 | 0.0 | 0.0 | 0.00 | 0.50 | 0.50 | 79 | 1013.9 |
| 20260507034755 | 47 | 263 | 0.0 | 0.0 | 0.00 | 0.50 | 0.50 | 77 | 1013.6 |
| 20260507034252 | 47 | 264 | 0.0 | 0.0 | 0.00 | 0.50 | 0.50 | 77 | 1013.5 |
| 20260507033751 | 47 | 263 | 0.0 | 0.0 | 0.00 | 0.50 | 0.50 | 79 | 1013.5 |
| 20260507033248 | 47 | 263 | 0.0 | 0.0 | 0.00 | 0.50 | 0.50 | 78 | 1013.3 |
| 20260507032745 | 47 | 264 | 0.0 | 0.0 | 0.00 | 0.50 | 0.50 | 77 | 1013.3 |
| 20260507032241 | 47 | 266 | 0.9 | 0.9 | 0.00 | 0.50 | 0.50 | 78 | 1013.5 |
| 20260507031737 | 47 | 261 | 0.0 | 0.0 | 0.00 | 0.50 | 0.50 | 79 | 1013.3 |
| 20260507031235 | 47 | 261 | 0.0 | 0.0 | 0.00 | 0.50 | 0.50 | 78 | 1013.3 |
| 20260507030731 | 47 | 261 | 0.0 | 0.0 | 0.00 | 0.50 | 0.50 | 78 | 1013.3 |
| 20260507030229 | 47 | 262 | 0.0 | 0.0 | 0.00 | 0.50 | 0.50 | 80 | 1013.4 |
| 20260507025726 | 47 | 262 | 0.0 | 0.0 | 0.00 | 0.50 | 0.50 | 78 | 1013.4 |
| 20260507025223 | 47 | 262 | 0.0 | 0.0 | 0.00 | 0.50 | 0.50 | 79 | 1013.4 |
| 20260507024721 | 47 | 262 | 0.0 | 0.0 | 0.00 | 0.50 | 0.50 | 79 | 1013.4 |
| 20260507024218 | 47 | 262 | 0.0 | 0.0 | 0.00 | 0.50 | 0.50 | 78 | 1013.2 |
| 20260507023713 | 47 | 263 | 0.0 | 0.0 | 0.00 | 0.50 | 0.50 | 77 | 1013.3 |